Location: Newark
(58.8333°N, 23.5833°E)
Time: 08:15:42
(UTC+00:00)

Explorer 7 - Pass Details

Date: 25 November 2019
Orbit: 485 x 680 km, 50.3° (Epoch: 12 December)

Event Time Altitude Azimuth Distance (km) Brightness Sun altitude
Rises 20:22:10 0° 210° (SSW) 2,992 - -47.1°
Reaches altitude 10° 20:25:19 10° 190° (S) 2,055 - -47.4°
Maximum altitude 20:28:12 16° 152° (SSE) 1,651 - -47.6°
Drops below altitude 10° 20:31:02 10° 114° (ESE) 1,995 - -47.8°
Sets 20:34:01 0° 93° (E) 2,861 - -48.0°
